铱星星座 33星 (IRIDIUM 33)

导读 | 星芒AI

IRIDIUM 33 是美国 IRIDIUM 卫星通信公司运营的一颗低轨通信卫星,属于 IRIDIUM 星座的一部分,用于提供全球范围的语音和数据通信服务。该卫星于 2001 年发射,运行在约 780 公里的极地轨道上。2009 年,IRIDIUM 33 与俄罗斯卫星“宇宙-2251”发生碰撞,成为历史上首次在轨卫星碰撞事故,引发广泛关注。此次事件凸显了太空碎片管理的重要性。

基本信息
目录编号:
24946
目录名称:
IRIDIUM 33
国际标识:
1997-051C
轨道中心:
EARTH
卫星名称:
铱星星座 33星
卫星全名:
铱星星座 33星 (IRIDIUM 33)
卫星状态:
在轨 (已飞行10317 天)
发射日期:
1997-09-14 UTC
国别 :
美国 (US)
星等 :
--
轨道信息
数据来源 国际轨道数据
星历时间: 2025-12-13T07:39:00+0800
10小时前
查看轨道信息
半长轴: 7153.078km
偏心率: 0.0007053
轨道倾角: 86.387°
近地点辐角 199.357°
升交点赤经 68.118°
平近点角 160.736°
近地点: 769.897km
远地点: 779.989km
周期: 100.346分钟
每日圈数: 14.350378
详细信息
平衡模式:
三轴稳定
覆盖范围:
全球
运营商:
铱星通信公司
运营商所在国:
美国
使用方式:
暂无
卫星简介
铱星(Iridium)是由共66个运作中的通信卫星组成的卫星通信系统。这个系统原本规划77个通信卫星,所以用原子序数为77的铱元素来命名。铱卫星允许人们使用手持型电子设备进行全球性的语音及数据通讯。该卫星已退役。
2D轨道图
3D轨道图
轨道高度分析图
轨道倾角分析图
轨道综合分析图
查看轨道综合分析图